ニート彗星

370P/NEAT (2018)

English version
Home page
Updated on June 14, 2021

---------------------------------------------------------------------

・ プロフィール

符号 370P/2018 P2
検出日 2018年8月10日
検出光度 18.8等
検出者 E. Schwab (Egelsbach, Germany), P. Ruiz (European Space Agency's Optical Ground Station, Tenerife, Spain)

・ 写真集

・ 軌道要素

Epoch 2018 June 11.0 TT = JDT 2458280.5                                         
T 2018 June  9.52033 TT                                 Rudenko                 
q   2.4852960            (2000.0)            P               Q                  
n   0.06023081     Peri.  356.78454     +0.61377195     -0.74092612             
a   6.4455045      Node    55.16281     +0.73154547     +0.40391332             
e   0.6144141      Incl.   19.39796     +0.29685892     +0.53654684             
P  16.4                                                                         
From 226 observations 2001 Aug. 20-2019 Jan. 16, mean residual 1".1.            

・ 光度変化

        m1 = 3.5 + 5 logΔ + 30.0 log r

---------------------------------------------------------------------

軌道要素はM.P.E.C. 2021-F20に掲載されたものです。
光度グラフはComet for Windowsで作成したものです。

---------------------------------------------------------------------

Copyright(C) Seiichi Yoshida (comet@aerith.net). All rights reserved.